Weather in Borzya

Russia / Zabaykalsky Krai     50°23′15″N   116°31′24″E
temp.,
°C
wind,
m/s
gust,
m/s
humid.,
%
clouds,
%
prec.,
mm/h
press.,
hPa
HPBL,
m
17 may, tue
tue1700:00+12nw34335 0.0 100050
03:00+10nw223523 0.0 100112
06:00+9n2239100 0.0 100315
09:00+14nne3330100 0.0 1004551
12:00+17nw46265 0.0 10042492
15:00+19nnw671926 0.0 10043177
18:00+19n251939 0.0 10033014
21:00+16ssw222759 0.0 100411
18 may, wed
wed1800:00+14sw1230100 0.0 100513
03:00+12w2334100 0.0 100543
06:00+12wnw495793 0.0 1006333
09:00+15w445167 0.0 1006606
12:00+19wnw5634100 0.0 10051631
15:00+21wnw772768 0.0 10042865
18:00+20nw78325 0.0 10051897
21:00+15nnw474342 0.0 1006131
19 may, thu
thu1900:00+13nnw35525 0.0 100868
03:00+11nnw34565 0.0 100952
06:00+10nnw225963 0.0 101130
09:00+16nnw12375 0.0 1011439
12:00+22nw45235 0.0 10102402
15:00+24wnw671940 0.0 10082880
18:00+25w681820 0.0 10063181
21:00+19sw462760 0.0 100582
20 may, fri
fri2000:00+17w2337100 0.1 100633
03:00+15nw485212 0.2 1007145
06:00+12nw34555 0.0 100855
09:00+18nw582933 0.0 10081474
12:00+22wnw711210 0.0 10062741
15:00+24nw913165 0.0 10033642
18:00+24nw1015125 0.0 10014075
21:00+20nnw511200 0.0 1003220
21 may, sat
sat2100:00+14nne22320 0.0 100611
03:00+11ne33445 0.0 100822
06:00+10n224912 0.0 101028
09:00+16n3433100 0.0 1011942
12:00+18nw3325100 0.0 10111532
15:00+22nw451613 0.0 10082105
18:00+23nw461796 0.0 10062533
21:00+19sw48278 0.0 1005124